Wind_Speed
9 9 8 8 7 6 5 5 6 6 7 7 7 7 6 6 6 6 6 6 6 7 7 8 8 8 8 8 8 9 9 9 10 9 10 10 9 8 8 7 6 6
10 9 9 8 8 7 6 6 7 6 7 7 8 7 6 6 6 6 7 7 7 8 7 8 8 8 8 8 8 8 8 9 9 9 9 9 9 9 9 8 7 6
11 11 11 10 9 9 8 8 7 7 8 8 8 8 7 7 7 7 7 8 8 8 8 8 8 8 8 8 8 8 8 9 9 9 10 9 9 9 9 8 8 7
12 12 12 11 11 10 9 8 8 8 9 9 9 9 9 8 8 7 8 8 9 9 8 8 8 8 8 8 8 8 8 9 9 9 10 10 9 9 9 8 8 8
13 13 13 12 12 11 9 9 9 10 9 9 10 10 9 9 9 8 8 8 9 9 8 8 8 8 8 8 8 8 8 9 9 9 9 10 9 9 8 8 8 8
13 13 13 13 13 12 10 9 10 11 11 10 10 10 9 10 9 8 8 8 8 9 9 9 8 8 8 9 9 9 9 9 9 9 10 10 9 9 8 8 8 8
12 13 13 13 13 12 11 10 10 13 14 10 9 10 10 10 9 9 9 8 9 9 9 9 9 9 9 9 9 9 9 9 9 9 10 9 9 9 8 7 7 7
11 13 14 14 14 12 12 12 11 13 14 11 9 10 10 10 10 9 9 9 9 9 9 9 9 9 8 9 9 10 9 8 8 8 9 9 8 8 7 6 6 6
11 12 13 14 13 12 11 12 12 12 12 11 10 10 9 9 10 10 10 10 10 10 10 10 10 9 8 9 9 10 9 8 7 8 8 8 7 7 7 6 5 5
12 12 13 13 12 12 11 12 12 12 12 11 11 10 9 9 10 10 10 10 10 10 10 10 10 9 9 9 9 9 9 8 8 8 8 7 7 6 7 7 6 5
11 11 11 11 12 12 12 13 13 12 11 11 10 11 10 9 10 11 11 11 10 10 11 10 10 10 9 9 9 8 8 8 8 8 7 7 6 6 6 6 6 5
10 10 10 11 12 11 11 12 13 13 12 12 11 11 11 10 11 11 11 12 12 11 12 12 11 11 11 10 10 9 8 8 8 8 8 7 6 6 6 6 6 6
11 11 11 12 12 10 10 11 12 13 13 12 11 11 11 11 12 12 12 12 13 13 13 13 13 13 12 12 12 11 10 9 8 8 7 7 7 6 7 7 7 7
10 11 11 11 10 9 9 10 11 12 12 12 12 12 12 12 12 13 13 13 13 14 14 14 14 14 14 14 13 12 11 10 9 8 7 7 7 6 6 7 7 7
7 8 8 9 9 9 9 9 9 10 11 12 12 12 13 13 13 13 13 14 14 14 14 15 15 15 15 15 15 14 12 10 8 8 7 6 6 4 4 5 7 7
4 5 6 7 8 9 9 8 9 9 9 10 12 13 13 14 13 13 14 14 14 15 15 15 15 15 17 17 17 16 14 12 10 7 5 3 2 0 2 4 7 8
3 4 5 7 7 8 9 9 10 9 9 11 11 12 13 13 14 14 14 15 15 16 16 16 16 17 21 22 21 20 18 17 15 10 5 2 2 1 2 4 6 8
0 2 3 5 6 8 9 10 11 11 11 12 12 12 12 13 14 14 14 15 16 17 18 18 17 20 25 25 24 23 21 19 17 14 10 9 7 6 6 6 6 6
3 2 2 2 4 6 7 9 10 12 12 13 13 13 13 14 15 16 16 16 17 18 19 19 19 22 25 25 24 23 21 18 15 13 14 13 13 14 12 8 8 9
6 5 4 3 3 4 5 7 9 10 11 12 13 14 15 17 17 17 18 18 18 19 20 20 20 21 23 25 25 22 20 19 16 12 12 12 13 14 12 9 9 11
7 6 6 5 5 4 5 6 7 9 10 11 12 13 15 17 19 21 21 21 21 22 22 22 21 21 22 24 24 20 20 22 20 15 13 13 12 12 12 11 9 9
8 7 6 6 6 6 6 7 8 9 10 10 11 12 13 15 18 21 22 23 24 25 24 23 21 19 21 23 23 21 21 23 21 18 17 15 13 11 11 10 8 7
8 8 7 7 7 7 7 8 8 9 10 10 11 12 14 15 17 18 20 22 23 24 24 23 20 17 19 24 24 22 22 23 21 19 18 17 15 13 11 11 11 9
8 8 9 9 8 8 8 9 9 10 10 11 11 13 14 15 16 17 19 19 19 21 21 20 20 18 18 22 25 23 24 25 22 20 19 18 17 14 12 12 14 12
9 9 9 9 9 10 10 10 11 11 11 12 12 13 14 15 16 18 19 19 17 18 19 18 18 19 19 21 24 25 27 27 22 21 21 19 18 16 13 12 13 13
11 10 10 10 11 11 11 12 12 12 12 12 13 14 15 15 17 17 18 18 16 16 18 18 19 22 23 24 25 26 28 25 21 22 23 20 18 16 14 13 13 13
Wind_Direction
150 147 144 144 145 145 149 149 148 152 147 139 135 130 126 119 114 113 108 108 107 100 97 96 93 90 86 85 94 98 92 92 93 91 94 98 94 92 90 85 81 81
149 145 143 141 140 141 145 144 144 148 142 134 129 123 122 121 117 115 114 114 111 107 103 100 95 91 91 93 99 105 99 92 95 96 95 97 94 90 85 82 81 83
148 144 144 143 142 142 143 142 142 143 138 134 130 127 126 123 120 117 114 114 112 108 105 100 96 94 97 101 101 104 102 96 94 93 92 90 90 91 87 85 86 84
150 146 146 145 144 145 146 146 141 137 139 140 135 132 131 128 125 121 116 115 113 111 108 103 101 102 103 105 103 101 99 95 93 93 93 91 90 91 90 89 87 84
154 149 147 146 148 150 152 152 148 141 141 142 139 136 135 134 134 132 128 123 119 117 115 110 107 107 106 105 104 103 100 97 97 99 99 98 98 97 96 94 88 85
158 153 150 149 152 157 158 159 159 153 149 147 143 144 145 142 142 143 139 134 129 125 121 118 115 112 110 109 108 109 109 107 107 108 108 108 109 109 108 107 101 94
162 158 154 153 157 162 161 162 165 158 155 154 148 151 157 152 149 151 149 145 140 135 130 126 123 119 118 117 115 114 113 114 117 119 117 116 117 119 118 115 112 107
170 164 162 160 160 161 161 164 169 165 162 160 154 161 168 159 153 156 156 153 148 143 140 136 131 129 126 124 122 120 119 121 124 125 121 120 125 127 125 122 121 121
182 177 176 172 166 166 169 171 172 175 179 174 165 168 172 163 159 162 162 161 157 152 150 146 142 138 134 133 133 132 131 130 127 126 126 129 135 139 138 135 135 139
191 191 190 185 185 189 192 190 184 183 185 179 171 171 171 166 165 168 170 168 164 161 157 154 152 149 145 143 142 142 142 139 136 136 138 143 150 154 151 147 152 161
192 195 197 200 207 208 205 202 199 199 196 188 182 179 175 174 174 176 176 174 173 171 167 165 162 160 157 155 152 152 150 150 151 152 153 158 162 163 162 160 167 179
194 199 207 213 215 214 209 205 206 210 205 196 192 187 183 183 184 184 185 184 184 182 179 177 173 171 171 167 165 164 163 165 165 165 169 173 176 178 181 184 188 195
194 197 207 212 212 212 211 206 206 209 205 201 200 196 193 194 193 193 194 193 192 191 190 187 182 181 180 176 176 175 174 175 173 175 180 182 185 192 198 202 205 211
190 188 197 207 208 210 212 207 206 208 210 211 211 206 203 204 203 201 200 201 200 196 194 191 187 185 182 180 180 177 175 178 177 179 187 192 197 206 214 217 223 229
189 186 197 205 208 213 214 211 211 214 217 220 220 217 215 216 215 210 206 207 205 201 197 193 189 188 186 185 186 181 175 171 167 173 185 192 198 213 224 233 250 254
192 194 202 207 211 216 217 218 223 226 226 227 227 226 223 223 223 218 214 213 210 206 200 194 190 191 190 187 185 180 170 159 149 143 141 147 152 232 220 227 258 263
193 196 204 208 212 218 223 228 231 232 234 235 234 232 228 226 225 221 218 216 214 210 202 195 195 197 195 191 187 184 178 172 164 149 131 123 97 33 272 243 261 266
304 205 212 213 213 218 224 231 235 237 238 238 234 231 230 227 224 221 218 217 217 216 209 203 205 210 208 202 197 197 196 194 190 190 207 223 221 235 251 246 253 262
348 320 283 242 226 226 225 229 237 238 239 239 235 234 234 229 223 222 222 220 220 220 217 213 213 218 220 213 207 207 208 208 206 206 211 220 231 237 234 226 238 252
1 346 326 299 270 250 235 236 244 245 243 240 238 238 237 233 230 229 228 226 224 224 223 220 217 220 223 219 213 213 218 219 217 214 213 220 228 227 220 218 231 239
8 358 344 325 304 284 264 256 256 258 255 248 244 242 239 237 236 234 233 233 232 229 227 226 225 224 224 220 217 221 228 228 223 221 222 222 218 211 210 214 217 217
359 351 344 333 318 302 284 271 264 264 262 255 251 248 244 243 241 238 236 237 237 234 230 230 231 227 221 221 224 230 233 228 221 218 217 214 209 201 193 190 190 193
346 340 335 329 321 310 298 288 279 272 264 256 250 248 248 247 244 242 242 241 239 237 235 236 239 236 226 224 228 229 224 216 209 207 210 207 200 189 175 171 174 172
331 326 325 324 319 315 314 310 298 285 275 263 251 247 250 249 247 248 248 245 242 239 241 244 244 242 237 234 232 225 212 203 196 193 196 195 187 177 165 171 179 168
315 312 313 313 313 316 318 313 304 294 284 273 259 252 252 250 250 251 249 248 245 242 246 249 239 233 233 231 228 218 202 195 192 189 188 185 179 170 152 156 173 171
304 302 303 304 304 306 307 306 304 298 289 281 270 261 255 252 252 253 251 250 246 241 246 246 234 230 227 219 215 207 194 190 194 191 187 183 177 167 150 145 159 170
Height
812 813 814 815 816 817 818 819 819 820 820 820 821 822 823 823 824 824 824 824 824 824 825 825 826 826 827 827 827 828 829 829 829 830 831 832 833 834 835 836 836 837
812 813 814 815 816 818 819 819 820 821 821 821 822 823 824 824 825 825 825 825 825 825 826 826 827 827 828 828 829 830 830 830 831 832 832 833 834 835 836 837 838 839
812 813 814 816 817 818 820 820 821 821 822 822 822 823 824 825 825 826 826 826 826 827 827 827 828 828 829 830 830 831 831 832 832 833 834 834 835 837 838 839 839 840
812 813 814 816 817 819 820 821 821 822 823 823 823 824 824 825 826 826 827 827 827 828 828 829 829 829 830 831 831 832 832 833 833 834 835 836 837 838 839 840 841 841
812 813 814 816 817 819 820 821 822 822 823 824 824 825 825 825 826 827 828 828 828 829 829 830 830 831 831 832 832 833 833 834 835 835 836 837 838 840 841 842 843 843
812 813 814 816 817 819 821 822 823 822 823 825 825 825 826 826 826 827 828 829 829 830 830 831 831 831 832 832 833 834 835 835 836 837 837 838 840 841 842 843 844 845
811 812 814 816 817 819 821 822 823 823 824 825 825 826 827 826 827 828 829 829 830 830 831 831 832 832 833 833 834 835 835 837 837 838 839 840 841 842 843 844 844 845
811 812 814 815 817 819 820 822 823 823 824 825 825 827 827 827 827 828 829 830 830 831 831 832 832 833 833 834 834 835 836 837 838 839 839 841 842 843 843 845 845 846
811 812 814 815 816 818 820 822 823 824 825 826 826 827 827 827 827 828 829 830 830 831 831 832 833 833 834 834 835 836 837 838 839 839 840 841 842 843 844 845 846 847
810 812 813 815 816 817 819 821 823 824 825 825 825 826 827 827 828 828 829 830 830 831 831 832 832 833 834 835 835 836 837 838 839 840 841 842 842 843 844 845 847 848
810 812 813 814 816 817 818 820 822 823 824 825 825 826 826 827 828 829 829 830 830 831 831 832 832 833 834 834 835 836 837 838 839 840 841 842 842 843 844 845 847 848
810 811 813 814 816 817 818 819 821 822 823 824 824 825 826 827 828 829 829 829 830 830 831 831 832 833 833 834 835 836 837 838 839 840 840 841 842 843 844 845 846 848
810 811 812 814 816 817 818 819 820 821 822 823 823 824 825 826 827 828 828 828 829 829 830 831 831 832 833 834 835 836 837 838 838 840 840 841 842 843 844 845 846 847
809 810 813 814 815 816 817 818 819 820 821 822 823 823 824 825 826 827 827 827 828 828 829 830 830 831 832 833 834 835 836 837 838 839 840 841 842 843 844 845 846 847
808 810 812 813 814 815 817 817 818 819 820 821 822 822 824 824 825 825 826 826 827 827 828 829 830 831 831 832 833 834 836 837 838 839 840 841 842 843 844 844 845 846
809 810 811 812 813 815 816 817 818 819 819 820 821 821 822 823 824 824 824 825 826 826 827 828 829 830 830 831 832 834 835 836 837 838 840 841 841 842 843 843 845 846
809 810 810 811 813 814 815 816 817 818 819 820 820 820 821 822 822 822 823 823 824 825 826 827 828 828 829 830 831 832 833 834 835 836 838 839 841 841 843 843 844 845
809 810 810 811 812 813 814 815 816 817 818 818 819 819 820 820 821 821 822 822 823 823 824 825 826 826 826 828 829 830 832 833 833 834 836 838 839 840 842 843 843 844
810 810 810 811 811 812 813 814 815 815 816 817 817 818 819 819 819 820 820 820 821 821 822 823 823 823 825 826 828 829 830 831 832 833 834 837 838 839 840 840 841 843
811 811 811 811 811 812 813 813 814 814 814 815 816 816 817 817 817 818 818 819 819 819 819 820 820 821 823 825 826 827 828 830 831 832 833 835 836 837 837 838 839 841
812 812 812 812 812 812 812 812 813 813 813 814 814 814 815 815 815 815 815 816 817 817 817 818 818 818 820 822 824 825 826 827 828 831 833 834 835 835 835 837 838 839
814 814 813 813 812 812 812 811 812 812 812 812 812 813 813 813 813 813 813 813 814 815 815 815 815 816 817 819 821 822 823 824 826 829 831 832 833 833 834 835 836 837
815 815 814 814 813 812 811 811 810 810 810 811 811 811 811 811 810 810 811 812 812 812 812 812 812 814 815 817 818 819 821 822 824 826 828 830 831 832 832 833 834 835
816 816 815 814 813 812 811 810 810 809 809 809 809 809 808 808 808 808 808 809 809 809 809 809 811 813 815 816 816 817 818 820 821 823 825 827 829 829 829 830 832 833
816 816 815 815 814 812 811 811 809 808 808 807 807 806 806 806 806 805 806 806 806 806 806 807 809 811 812 814 815 815 816 818 818 819 821 823 825 826 827 828 830 832
815 815 815 814 813 812 811 810 809 808 807 806 805 805 804 804 804 803 803 803 804 804 804 804 807 808 808 810 812 813 814 816 816 816 818 820 822 823 824 826 829 831